Regional Weather Roundup
Issued by NWS Kansas City/Pleasant Hill, MO

Home | Current Version | Previous Version | Text Only | Print | Product List | Glossary On
Versions: 1 2 3 4 5 6 7 8 9 10 11 12 13 14 15 16 17 18 19 20 21 22 23 24 25 26 27
000
ASUS43 KEAX 250010
RWREAX

WEATHER ROUNDUP FOR EASTERN KANSAS AND NORTHWEST MISSOURI
NATIONAL WEATHER SERVICE KANSAS CITY/PLEASANT HILL MO
700 PM CDT TUE APR 24 2018

KSZ040-057-103>105-MOZ028-029-037-043-250100-
...KANSAS CITY METROPOLITAN AREA...

CITY           SKY/WX    TMP DP  RH WIND       PRES   REMARKS
K.C. INTL      CLOUDY    69  37  30 N6        30.06S
6HR MIN TEMP:  69; 6HR MAX TEMP:  78;

K.C. DOWNTOWN  CLOUDY    73  36  25 N6        30.04S
6HR MIN TEMP:  73; 6HR MAX TEMP:  78;

LEES SUMMIT    CLOUDY    71  35  26 N12       30.06R
6HR MIN TEMP:  71; 6HR MAX TEMP:  77;

OLATHE - IXD   CLOUDY    70  36  28 N12       30.07R
6HR MIN TEMP:  69; 6HR MAX TEMP:  77; 6HR PCP: TRACE;

OLATHE - OJC   CLOUDY    72  33  24 N9        30.06R
6HR MIN TEMP:  71; 6HR MAX TEMP:  76;

LAWRENCE       CLOUDY    67  44  43 NW20G37   30.08R

$$

MOZ001>008-011>017-020>025-030>033-038>040-044>046-053-054-250100-
...NORTHERN AND CENTRAL MISSOURI...

CITY           SKY/WX    TMP DP  RH WIND       PRES   REMARKS
ST. JOSEPH     CLOUDY    69  44  40 NW24G33   30.07R
6HR MIN TEMP:  69; 6HR MAX TEMP:  79;

MOSBY          CLOUDY    72  34  25 NW3       30.05S
WARRENSBURG    SUNNY     73  34  23 NW5       30.04S
WHITEMAN AFB   PTSUNNY   72  36  26 N13       30.00R
6HR MIN TEMP:  71; 6HR MAX TEMP:  76;

CLINTON        MOSUNNY   72  41  33 N7        30.04S
SEDALIA        SUNNY     75  36  24 N14       30.03S
6HR MIN TEMP:  72; 6HR MAX TEMP:  78;

WARSAW         NOT AVBL
CHILLICOTHE      N/A     72  38  29 N6        30.05R
6HR MIN TEMP:  72; 6HR MAX TEMP:  79;

KIRKSVILLE     MOCLDY    70  34  26 NW8       30.03S
6HR MIN TEMP:  70; 6HR MAX TEMP:  76;


$$

MOZ041-047>049-056>058-063>065-088>090-097-250100-
...EASTERN AND SOUTHERN MISSOURI...

CITY           SKY/WX    TMP DP  RH WIND       PRES   REMARKS
ST. LOUIS INTL MOCLDY    70  49  47 NW5       29.98S
6HR MIN TEMP:  62; 6HR MAX TEMP:  72;

SPIRIT OF STL  PTCLDY    70  50  49 CALM      29.97F
COLUMBIA       CLOUDY    73  39  29 NW8       30.01S
JEFFERSON CITY PTCLDY    73  44  35 NW3       30.00S
ROLLA          PTCLDY    67  47  48 N5        30.02S
OSAGE BEACH    PTCLDY    72  45  37 N7        30.03S
SPRINGFIELD    SUNNY     71  39  31 N12       30.04R
BRANSON        PTCLDY    72  39  30 NW9       30.04S
JOPLIN         SUNNY     70  41  34 N8        30.05S
WEST PLAINS    CLEAR     69  46  43 N8        30.03R

$$

IAZ060-094-KSZ022-034>040-054-083-096-NEZ052-066-093-250100-
...KANSAS...SOUTHEAST NEBRASKA AND IOWA...

CITY           SKY/WX    TMP DP  RH WIND       PRES   REMARKS
TOPEKA         CLOUDY    64  46  52 NW15G30   30.11R
6HR MIN TEMP:  64; 6HR MAX TEMP:  79;

MANHATTAN      CLOUDY    58  48  69 VRB7      30.15R
EMPORIA        MOSUNNY   62  45  53 NW18G29   30.12R
CHANUTE        PTSUNNY   75  37  25 N6        30.06S
WICHITA        CLOUDY    62  47  57 N24G31    30.14S
OMAHA          LGT RAIN  57  49  74 W15       30.17R
LINCOLN        LGT RAIN  51  49  92 N8        30.21S
FALLS CITY     CLOUDY    62  45  53 NW23G33   30.14R
LAMONI         PTSUNNY   69  38  32 N8        30.05S
DES MOINES     PTSUNNY   69  41  36 N12       30.07S

$$





USA.gov is the U.S. government's official web portal to all federal, state and local government web resources and services.